Regional Weather Roundup
Issued by NWS Wakefield, VA

Home | Current Version | Previous Version | Text Only | Print | Product List | Glossary Off
Versions: 1 2 3 4 5 6 7 8 9 10 11 12 13 14 15 16 17 18 19 20 21 22 23 24 25 26 27 28

000
ASUS41 KAKQ 241215
RWRAKQ

REGIONAL WEATHER ROUNDUP
NATIONAL WEATHER SERVICE WAKEFIELD VA
800 AM EDT WED AUG 24 2016

Note: "fair" indicates few or no clouds below 12,000 feet with no
significant weather and/or obstructions to visibility. * = Denotes
station may not report precipitation (e.g., rain,snow,etc.),
thunder or fog.

VAZ042-051-052>054-056-241300-
NORTHERN VIRGINIA

CITY           SKY/WX    TMP DP  RH WIND       PRES   REMARKS
WASH NATIONAL  MOSUNNY   71  63  75 S6        30.32R
DULLES         MOSUNNY   69  61  75 S9        30.31S
FORT BELVOIR   SUNNY     63  62  96 CALM      30.31S
QUANTICO       MOSUNNY   71  61  70 CALM      30.32S
FREDERICKSBRG* PTSUNNY   66  66 100 CALM      30.32R
STAFFORD*      SUNNY     66  62  85 CALM      30.36S
WARRENTON      SUNNY     65  59  80 CALM      30.31R
CULPEPER*      PTSUNNY   66  64  92 CALM      30.32S
MANASSAS*      SUNNY     66  64  94 CALM      30.31S
LEESBURG*      MOSUNNY   66  64  94 CALM      30.32S
WINCHESTER     SUNNY     66  63  88 SW3       30.30S
FRONT ROYAL*   FAIR      64  63  94 S5        30.30S
LURAY*         FAIR     N/A N/A N/A CALM      30.32S
$$

VAZ048-049-060>072-079>083-241300-
CENTRAL AND SOUTH CENTRAL VIRGINIA

CITY           SKY/WX    TMP DP  RH WIND       PRES   REMARKS
RICHMOND       PTSUNNY   70  60  70 NW3       30.33R
CHESTERFIELD*  CLOUDY    66  50  55 CALM      30.34R
PETERSBURG*    CLOUDY    67  67 100 CALM      30.34R
HANOVER        PTSUNNY   68  62  81 VRB3      30.34R
TAPPAHANNOCK*  PTSUNNY   65  65 100 CALM      30.33R
QUINTON*       FAIR      63  61  95 CALM      30.32R
CHARLOTTSVILLE MOSUNNY   65  63  93 CALM      30.32S
GORDONSVILLE*  CLOUDY    64  64 100 MISG      30.32R
ORANGE*          N/A     68  64  88 CALM      30.34R
LOUISA*        PTSUNNY   70  64  83 CALM      30.32S
BUMPASS*       PTSUNNY   65  63  93 CALM      30.33R
FARMVILLE*     SUNNY    N/A N/A N/A CALM      30.33R
CREWE*         PTSUNNY   62  62 100 CALM      30.33S
FORT PICKETT*  NOT AVBL
CHASE CITY*    PTSUNNY   65  64  94 CALM      30.33S
CLARKSVILLE*   FAIR      68  64  88 CALM      30.32S
SOUTH HILL*    PTSUNNY   64  63  96 CALM      30.38S
LAWRENCEVILLE* PTSUNNY   65  63  96 CALM      30.33R
EMPORIA*       CLOUDY    64  63  94 CALM      30.34R
$$

VAZ088>098-241300-
SOUTHEAST VIRGINIA

CITY           SKY/WX    TMP DP  RH WIND       PRES   REMARKS
NORFOLK        SUNNY     74  62  66 NE5       30.30R
VIRGINIA BEACH MOSUNNY   76  66  71 NW3       30.29R
NORFOLK NAVAL  MOSUNNY   73  65  75 NE5       30.31R
WEST POINT*    MOSUNNY   64  64  97 CALM      30.34R
SALUDA*        FAIR      69  65  86 CALM      30.31S
NEWPORT NEWS   SUNNY     68  64  87 CALM      30.31R
LANGLEY AFB    SUNNY     69  66  90 CALM      30.30R
FORT EUSTIS    SUNNY     72  64  73 VRB2      30.29R
WILLIAMSBURG*  SUNNY     66  66 100 N3        30.33R
HR EXEC AP*    FAIR      63  61  94 CALM      30.32S
FRANKLIN*      CLOUDY    64  60  90 CALM      30.32R
US460-WAKEFLD  MOSUNNY   66  61  84 CALM      30.32R
$$

VAZ020-022-025-037-045-241300-
WEST CENTRAL AND SOUTHWEST VIRGINIA

CITY           SKY/WX    TMP DP  RH WIND       PRES   REMARKS
STAUNTON*      SUNNY     60  59  96 CALM      30.36R
WAYNESBORO*    FAIR      64  61  91 CALM      30.35R
HOT SPRINGS VA SUNNY     64  63  96 SW5       30.41S
LYNCHBURG      SUNNY     66  63  90 CALM      30.35R
DANVILLE       SUNNY     65  63  93 CALM      30.33R
SOUTH BOSTON*  FAIR      64  63  94 CALM      30.33S
MARTINSVILLE   SUNNY     62  61  97 CALM      30.37R
ROANOKE        MOSUNNY   65  63  93 CALM      30.36R
BLACKSBURG     SUNNY     62  61  97 CALM      30.40S
DUBLIN*        CLOUDY    61  61 100 CALM      30.38S FOG
MARION*        MOSUNNY   61  60  96 CALM      30.41R
HILLSVILLE*    MOSUNNY   60  60  99 CALM      30.38R
RICHLANDS*     FAIR      66  62  86 SE5       30.35S
WISE*          CLOUDY    68  55  64 S6        30.36S
ABINGDON*      PTSUNNY   67  64  87 E5        30.34S
$$

MDZ021>025-VAZ099-100-241300-
SOUTHERN MARYLAND AND THE DELMARVA PENINSULA

CITY           SKY/WX    TMP DP  RH WIND       PRES   REMARKS
PATUXENT RIVER MOSUNNY   71  65  81 W5        30.32R
BAY BRIDGE APT SUNNY     73  63  68 W7        30.31S
LEONARDTOWN    MOSUNNY   70  63  78 W5        30.34R
DOVER          SUNNY     68  61  79 SW6       30.30R
GEORGETOWN     SUNNY     66  62  87 CALM      30.32S
EASTON         MOSUNNY   68  66  94 CALM      30.35R
CAMBRIDGE      SUNNY     64  61  88 CALM      30.31S
SALISBURY      SUNNY     64  60  87 CALM      30.32R
OCEAN CITY     SUNNY     69  63  81 NW3       30.31S
WALLOPS ISLAND SUNNY     70  62  76 CALM      30.31S
ACCOMACK*      SUNNY     66  62  86 CALM      30.31S
$$

NCZ012>017-030>032-241300-
NORTH CENTRAL AND EASTERN NORTH CAROLINA

CITY           SKY/WX    TMP DP  RH WIND       PRES   REMARKS
ROANOKE RAPIDS PTSUNNY   63  61  94 CALM      30.32S
RALEIGH        MOSUNNY   71  62  73 CALM      30.32R
ELIZABETH CITY MOSUNNY   72  65  78 N9        30.29S
AHOSKIE*       SUNNY     63  61  94 CALM      30.32R
EDENTON*       MOSUNNY   69  63  81 N5        30.30S
CURRITUCK*       N/A     69  66  89 CALM      30.30R
KILL DEVIL HLS MOSUNNY   77  70  78 NE6       30.26S
MANTEO         MOSUNNY   76  67  73 NE9       30.27S
CAPE HATTERAS  MOSUNNY   78  69  73 NE9G17    30.25R
TARBORO*       FAIR      65  64  94 CALM      30.32R
GOLDSBORO      SUNNY     68  66  94 N3        30.29R
WASHINGTON     SUNNY     65  62  90 CALM      30.30R
GREENVILLE     SUNNY     66  64  94 CALM      30.31R
NEW BERN       SUNNY     70  65  84 NW5       30.30R
WILMINGTON     SUNNY     70  63  78 NE6       30.27R
$$

VAZ048-241300-
ELSEWHERE

CITY           SKY/WX    TMP DP  RH WIND       PRES   REMARKS
HARRISBURG PA  SUNNY     67  63  87 E3        30.30R
BALTIMORE      MOSUNNY   68  61  78 CALM      30.31R
ANNAPOLIS      SUNNY     72  63  73 CALM      30.31R
ANDREWS AFB    MOSUNNY   71  63  76 SW7       30.31R
PHILADELPHIA   MOSUNNY   71  59  65 W5        30.31R
HENDERSON NC   SUNNY     64  62  93 CALM      30.33S
GREENSBORO     PTSUNNY   70  65  84 S6        30.33R
ROCKY MOUNT    MOSUNNY   66  66 100 CALM      30.32R
$$

VAZ100-241300-
MARINE

STATION/POSITION TIME  TEMP    WIND        PRES    WAVE   SWELL
                       AIR SEA DIR/SP/G            HT/PER HT/PER
                 (UTC) (F)     (DEG/KT/KT) (MB)    (FT/S) (FT/S)
BRANDYWINE LGT   1100   72     250/ 10/ 11   N/A
CAPE MAY NJ      1100   73 75  250/  8/  9 1025.7R
LEWES DE         1100   67 75  230/  6/  8 1026.0R
OCEAN-CITY-INLET 1100   67 73  340/  3/  3 1026.6R
WACHAPREAGUE VA  1100   67 77  310/  1/  2 1026.2R
THOMAS POINT MD  1200   71 81  250/  8/  9 1027.6R
GOOSES REEF MD   1100   74 82  270/ 10/ 12 1026.8R   1/ 2
COVE POINT MD    1100   72     280/  6/  9 1026.7R
SOLOMONS ISLAND  1100   72 83  280/  4/  6   N/A
BISHOPS HEAD MD  1100   76 78  180/  4/  5 1026.4R
PINEY POINT MD   1100          300/  7/  8   N/A
POTOMAC MD       1100   75 82  270/  6/  8 1025.2R   0
CAMBRIDGE MD     1100   68 84  190/  1/  2 1025.4R
LEWISETTA VA     1100   69 81  290/  4/  6 1025.9R
RAPPAHANNOCK LGT 1100           80/  6/  7 1026.8R
STINGRAY PT      1100   77 83   10/  2/  4 1026.5R   0
YORK RVR RNG VA  1142   74     330/  6/  7 1025.9
YORKTOWN VA      1100   71 82  250/  2/  3 1025.7R
JAMESTOWN VA     1100   69 84   20/  2/  4   N/A     0
DOMINION TERM VA 1100   72      30/  3/  4 1025.9R
KIPTOPEKE VA     1100      78   50/  4/  4   N/A
CHES BAY BRIDGE  1100   75 79   30/  8/  9 1025.7R
CAPE HENRY VA    1100   75      20/  8/  9   N/A
WILLOUBY STN VA  1100   75      60/  6/  9   N/A
CAPE HENRY BUOY  1112      78                N/A     2/ 5
1ST LANDING BUOY 1100   76 76   50/  8/ 10 1025.8R   1/ 4
CAPE CHARLES BUO 1126      77                N/A     2/ 5
OFFSHORE WE BUOY 1121      80                N/A     3/ 5
64NM E OF VA BCH 1150   78 81   60/ 10/ 12 1024.8R   2/ 8   2/ 8
DUCK PIER NC     1100   76 78   40/ 10/ 11 1024.4R
44100 DUCK FRF   1105      80                N/A     3/ 5
44056 DUCK FRF   1111      78                N/A     3/ 5
OREGON INLET NC  1100   76 78   30/  9/ 11 1024.3R
HATTERAS NC      1100   76 79   30/  9/ 13 1023.5S
DIAMOND SHLS NC  1150   79 84   30/ 17/ 19 1023.3R   3/ 8   2/ 8
CAPE LOOKOUT NC  1200   75     360/  9/ 11 1024.1R
$$




USA.gov is the U.S. government's official web portal to all federal, state and local government web resources and services.